#timestamp,LO_Frequency,Hit,StdDev 
1711814415.0,286046998.5,N
1711814415.9,286046998.5,N
1711814435.8,286046998.1,N
1711814455.6,286046998.5,N
1711814475.5,286047001.0,N
1711814495.3,286047001.1,N
1711814515.1,286047000.3,N
1711814535.9,286046999.7,N
1711814555.7,286047000.5,N
1711814575.6,286047000.7,N
1711814595.4,286047001.1,N
1711814615.2,286047001.1,N
1711814635.1,286047000.8,N
1711814636.0,286047000.8,N
1711814655.8,286047000.6,N
1711814675.6,286047001.0,N
1711814695.5,286046998.6,N
1711814715.3,286047000.9,N
1711814735.2,286047000.6,N
1711814755.9,286047002.6,N
1711814775.7,286047001.6,N
1711814795.6,286047002.4,N
1711814815.4,286047002.3,N
1711814835.2,286047002.8,N
1711814855.1,286047002.1,N
1711814856.0,286047002.1,N
1711814875.8,286047003.9,N
1711814895.7,286047004.0,N
1711814915.5,286047004.1,N
1711814935.3,286047002.4,N
1711814955.2,286046999.9,N
1711814975.0,286047000.2,N
1711814975.9,286047000.2,N
1711814995.8,286047002.5,N
1711815015.6,286046999.7,N
1711815035.4,286046999.9,N
1711815055.3,286047000.2,N
1711815075.1,286047000.8,N
1711815095.9,286047000.6,N
1711815115.7,286047000.2,N
1711815135.5,286047000.3,N
1711815155.4,286047002.7,N
1711815175.2,286047002.3,N
1711815195.1,286047002.1,N
1711815196.0,286047002.1,N
1711815215.8,286047002.4,N
1711815235.6,286047002.6,N
1711815255.5,286046999.9,N
1711815275.3,286047000.2,N
1711815295.2,286047002.7,N
1711815315.0,286047000.2,N
1711815315.9,286047000.2,N
1711815335.7,286047000.4,N
1711815355.6,286047004.4,Y
1711815375.4,286047002.4,P
1711815395.3,286047002.7,P
1711815415.1,286047002.8,P
1711815435.8,286047002.6,Y
1711815455.7,286047001.1,P
1711815475.5,286046999.0,N
1711815495.4,286046999.2,N
1711815515.2,286046998.2,N
1711815535.0,286046998.8,N
1711815535.9,286046998.8,N
1711815555.8,286046998.6,N
1711815575.6,286046998.8,N
1711815595.5,286046998.8,N
1711815615.3,286046998.7,N
1711815635.1,286046999.0,N
1711815655.9,286046999.1,N
1711815675.7,286046999.3,N
1711815695.5,286047001.0,N
1711815715.4,286047000.9,N
1711815735.2,286047002.7,N
1711815755.1,286047000.3,N
1711815756.0,286047000.3,N
1711815775.8,286047000.0,N
1711815795.6,286047000.3,N
1711815815.5,286046999.8,N
1711815835.3,286047000.8,N
1711815855.2,286047001.0,N
1711815875.9,286046999.0,N
1711815895.7,286046997.0,N
1711815915.6,286046997.3,N
1711815935.4,286046997.4,N
1711815955.3,286046994.9,Y
1711815975.1,286046999.5,P
1711815995.8,286046997.1,P
1711816015.7,286046999.1,N
1711816035.5,286047000.6,N
1711816055.4,286047000.0,N
1711816075.2,286047001.2,N
1711816095.0,286046996.5,N
1711816095.9,286046996.5,N
1711816115.8,286046998.9,N
1711816135.6,286046998.6,N
1711816155.5,286047000.7,N
1711816175.3,286046998.9,N
1711816195.1,286046999.1,N
1711816215.9,286046999.5,N
1711816235.7,286046998.8,N
1711816255.6,286046999.0,N
1711816275.4,286046998.4,N
1711816295.2,286046999.4,N
1711816315.1,286046996.8,N
1711816316.0,286046996.8,N
1711816335.8,286046997.3,N
1711816385.7,286046997.2,E
1711816395.6,286046999.2,N
1711816415.4,286046998.1,P
1711816435.3,286047000.7,N
1711816455.1,286047000.3,N
1711816475.8,286047001.7,N
1711816495.7,286047001.3,N
1711816515.5,286047001.3,N
1711816535.4,286047004.3,Y
1711816555.2,286047001.5,P
1711816575.0,286047003.8,P
1711816575.9,286047003.8,N
1711816595.8,286047001.3,N
1711816615.6,286047001.8,N
1711816635.5,286047001.6,N
1711816655.3,286047001.3,N
1711816675.1,286047002.5,N
1711816695.9,286047001.7,N
1711816715.7,286047001.7,N
1711816735.5,286047002.5,N
1711816755.4,286047002.0,N
1711816775.2,286047004.4,Y
1711816795.1,286047000.4,P
1711816796.0,286047000.4,N
1711816815.8,286047000.4,N
1711816835.6,286047000.5,N
1711816855.5,286047002.8,Y
1711816875.3,286047000.6,P
1711816895.2,286046999.8,P
1711816915.9,286046998.6,P
1711816935.7,286046998.2,N
1711816955.6,286046998.7,N
1711816975.4,286047000.8,N
1711816995.2,286047000.8,N
1711817015.1,286047000.9,N
1711817016.0,286047000.9,N
1711817035.8,286047001.1,N
1711817055.7,286047001.2,N
1711817075.5,286047000.8,N
1711817095.3,286047001.2,N
1711817115.2,286046998.1,N
1711817135.0,286047000.8,N
1711817135.9,286047000.8,N
1711817155.8,286047000.7,N
1711817175.6,286047000.8,N
1711817195.5,286047000.9,N
1711817215.3,286047000.4,N
1711817235.1,286046998.5,N
1711817255.9,286046998.8,N
1711817275.7,286046998.1,N
1711817295.5,286046998.5,N
1711817315.4,286046998.2,N
1711817335.2,286046998.5,N
1711817355.1,286046999.1,N
1711817356.0,286046999.1,N
1711817375.8,286046998.5,N
1711817395.9,286046998.3,N
1711817415.7,286046999.3,N
1711817435.6,286046996.5,Y
1711817455.4,286046997.8,P
1711817475.2,286046997.2,P
1711817495.1,286046997.4,N
1711817496.0,286046997.4,N
1711817515.8,286046997.5,N
1711817535.7,286046999.0,N
1711817555.5,286046998.8,N
1711817575.3,286047000.8,N
1711817595.2,286046998.6,N
1711817615.0,286046999.0,N
1711817615.9,286046999.0,N
1711817635.7,286047001.2,N
1711817655.6,286046998.5,N
1711817675.4,286047001.1,N
1711817695.3,286046998.4,N
1711817715.1,286046996.8,N
1711817716.0,286046996.8,N
1711817735.8,286046997.1,N
1711817755.7,286046997.8,N
1711817775.5,286046997.1,N
1711817795.3,286046998.9,N
1711817815.2,286046998.9,N
1711817835.0,286046996.8,N
1711817835.9,286046996.8,N
1711817855.8,286046996.8,N
1711817875.6,286046998.7,N
1711817895.4,286046998.7,N
1711817915.3,286046996.5,N
1711817935.1,286046998.7,N
1711817955.9,286046999.5,N
1711817975.7,286046999.2,N
1711817995.5,286047001.1,N
